period_start,C,m1,H,J0,J1,J2,J3,J4,J5,JA,JB,JC,JD,JJ,JK,JN,#
2014-12-05 00:00:18,0.19,0.66,0.00,19.85,24.41,27.59,4.91,27.00,1042.33,2043.60,3206.20,3147.85,3411.06,349.97,360.27,3.84,0000 0000 0000 0000 000000
2014-12-05 00:05:19,0.24,0.67,0.00,19.87,24.42,27.63,4.92,27.07,1042.21,2043.46,3202.77,3145.69,3408.96,349.35,359.67,3.87,0000 0000 0000 0000 000000
2014-12-05 00:10:21,0.20,0.67,0.00,19.85,24.42,27.63,4.92,27.05,1042.04,2043.48,3200.29,3144.03,3407.21,349.53,359.84,3.90,0000 0000 0000 0000 000000
2014-12-05 00:15:22,0.22,0.68,0.00,19.84,24.42,27.64,5.01,27.05,1042.04,2043.61,3197.76,3142.16,3405.18,349.85,360.16,3.93,0000 0000 0000 0000 000000
2014-12-05 00:20:24,0.21,0.68,0.00,19.87,24.42,27.65,4.94,26.98,1042.03,2043.44,3194.49,3139.94,3402.81,349.56,359.67,3.96,0000 0000 0000 0000 000000
2014-12-05 00:25:25,0.29,0.69,0.00,19.87,24.42,27.64,5.02,27.02,1042.02,2043.34,3191.23,3137.54,3400.19,350.16,360.36,3.99,0000 0000 0000 0000 000000
2014-12-05 00:30:26,0.25,0.70,0.00,19.85,24.42,27.63,4.97,27.16,1042.01,2043.15,3187.62,3135.01,3397.13,350.14,360.14,4.02,0000 0000 0000 0000 000000
2014-12-05 00:35:28,0.24,0.71,0.00,19.85,24.42,27.67,4.94,27.15,1042.02,2043.07,3183.97,3132.78,3394.86,349.92,360.25,4.04,0000 0000 0000 0000 000000
2014-12-05 00:40:29,0.24,0.71,0.00,19.89,24.42,27.64,4.94,27.16,1042.02,2043.06,3180.92,3130.73,3392.66,349.46,359.61,4.07,0000 0000 0000 0000 000000
2014-12-05 00:45:30,0.30,0.72,0.00,19.88,24.42,27.64,4.96,26.90,1042.03,2043.04,3177.49,3128.18,3389.80,350.05,360.05,4.10,0000 0000 0000 0000 000000
2014-12-05 00:50:32,0.25,0.73,0.00,19.88,24.42,27.65,4.90,26.97,1042.03,2043.02,3173.69,3125.83,3387.65,349.27,359.33,4.13,0000 0000 0000 0000 000000
2014-12-05 00:55:33,0.22,0.74,0.00,19.87,24.42,27.65,4.99,27.09,1042.02,2043.14,3171.12,3124.10,3385.80,349.70,359.82,4.16,0000 0000 0000 0000 000000
2014-12-05 01:00:34,0.26,0.75,0.00,19.88,24.43,27.65,4.93,27.02,1042.02,2043.09,3168.09,3121.81,3383.03,349.91,359.99,4.19,0000 0000 0000 0000 000000
2014-12-05 01:05:35,0.30,0.75,0.00,19.86,24.43,27.65,5.00,26.94,1042.02,2043.05,3164.17,3119.34,3380.44,350.06,360.35,4.22,0000 0000 0000 0000 000000
2014-12-05 01:10:36,0.29,0.76,0.00,19.79,24.44,27.67,4.98,27.00,1042.01,2043.04,3160.29,3116.77,3377.79,350.10,360.19,4.25,0000 0000 0000 0000 000000
2014-12-05 01:15:37,0.31,0.77,0.00,19.86,24.44,27.65,4.99,27.06,1042.01,2043.03,3156.51,3114.21,3375.09,349.62,359.73,4.28,0000 0000 0000 0000 000000
2014-12-05 01:20:38,0.29,0.78,0.00,19.86,24.44,27.70,5.00,27.09,1042.01,2043.02,3152.82,3111.71,3372.41,350.57,360.45,4.31,0000 0000 0000 0000 000000
2014-12-05 01:25:40,0.33,0.79,0.00,19.87,24.44,27.69,4.96,26.96,1042.01,2043.00,3148.83,3108.90,3369.35,349.44,359.81,4.34,0000 0000 0000 0000 000000
2014-12-05 01:30:41,0.33,0.80,0.00,19.90,24.44,27.68,4.97,26.98,1042.01,2043.00,3144.59,3106.10,3366.40,349.95,360.10,4.37,0000 0000 0000 0000 000000
2014-12-05 01:35:42,0.33,0.81,0.00,19.89,24.44,27.69,4.94,27.04,1042.01,2043.00,3140.40,3103.26,3363.43,349.15,359.37,4.40,0000 0000 0000 0000 000000
2014-12-05 01:40:43,0.32,0.82,0.00,19.86,24.43,27.69,4.93,27.12,1042.01,2043.00,3136.17,3100.45,3360.46,349.72,359.92,4.42,0000 0000 0000 0000 000000
2014-12-05 01:45:45,0.32,0.83,0.00,19.79,24.44,27.68,5.00,26.84,1041.98,2043.01,3132.30,3097.73,3357.60,350.38,360.75,4.45,0000 0000 0000 0000 000000
2014-12-05 01:50:46,0.31,0.84,0.00,19.85,24.43,27.68,4.92,27.02,1041.99,2043.00,3128.39,3095.14,3354.85,349.82,359.91,4.48,0000 0000 0000 0000 000000
2014-12-05 01:55:47,0.29,0.85,0.00,19.86,24.44,27.72,4.95,27.05,1042.01,2043.00,3124.72,3092.51,3351.98,349.45,359.77,4.51,0000 0000 0000 0000 000000
2014-12-05 02:00:49,0.31,0.85,0.00,19.86,24.44,27.69,4.98,26.96,1041.92,2043.01,3121.18,3089.99,3349.08,349.95,359.96,4.54,0000 0000 0000 0000 000000
2014-12-05 02:05:50,0.35,0.86,0.00,19.84,24.43,27.71,5.00,26.93,1041.93,2043.00,3116.95,3087.12,3346.01,350.56,360.85,4.57,0000 0000 0000 0000 000000
2014-12-05 02:10:52,0.35,0.87,0.00,19.85,24.43,27.67,4.86,27.06,1041.76,2043.00,3112.53,3084.16,3342.93,349.27,359.29,4.60,0000 0000 0000 0000 000000
2014-12-05 02:15:53,0.38,0.89,0.00,19.86,24.42,27.67,4.90,27.12,1041.61,2043.00,3107.94,3081.05,3339.61,349.00,358.91,4.63,0000 0000 0000 0000 000000
2014-12-05 02:20:54,0.42,0.90,0.00,19.81,24.42,27.67,4.95,27.03,1041.59,2043.00,3102.87,3077.55,3335.85,350.11,360.22,4.66,0000 0000 0000 0000 000000
2014-12-05 02:25:55,0.45,0.91,0.00,19.82,24.42,27.66,5.00,27.10,1041.55,2043.00,3097.34,3073.83,3331.80,350.01,360.08,4.69,0000 0000 0000 0000 000000
2014-12-05 02:30:56,0.49,0.92,0.00,19.85,24.42,27.68,4.93,27.02,1041.53,2043.00,3091.33,3069.86,3327.66,349.60,359.49,4.72,0000 0000 0000 0000 000000
2014-12-05 02:35:58,0.49,0.94,0.00,19.85,24.42,27.69,5.03,27.16,1041.55,2043.00,3085.20,3065.77,3323.39,350.32,360.37,4.75,0000 0000 0000 0000 000000
2014-12-05 02:40:59,0.46,0.95,0.00,19.86,24.42,27.70,5.00,27.04,1041.54,2043.00,3079.43,3061.86,3319.17,350.11,360.26,4.78,0000 0000 0000 0000 000000
2014-12-05 02:46:01,0.39,0.97,0.00,19.85,24.42,27.68,4.97,27.10,1041.54,2043.00,3074.43,3058.49,3315.65,350.35,360.38,4.81,0000 0000 0000 0000 000000
2014-12-05 02:51:02,0.43,0.98,0.00,19.85,24.42,27.67,4.93,27.01,1041.52,2043.00,3069.29,3055.03,3312.01,349.72,359.83,4.84,0000 0000 0000 0000 000000
2014-12-05 02:56:04,0.42,0.99,0.00,19.77,24.42,27.70,4.93,27.11,1041.52,2043.00,3064.06,3051.44,3308.29,349.82,359.95,4.86,0000 0000 0000 0000 000000
2014-12-05 03:01:05,0.32,1.00,0.00,19.79,24.42,27.66,4.96,26.99,1041.52,2043.00,3059.76,3048.54,3305.25,350.14,360.22,4.89,0000 0000 0000 0000 000000
2014-12-05 03:06:06,0.28,1.01,0.00,19.82,24.42,27.68,4.98,27.16,1041.52,2043.00,3056.33,3046.25,3302.75,349.94,360.09,4.92,0000 0000 0000 0000 000000
2014-12-05 03:11:08,0.39,1.02,0.00,19.81,24.42,27.66,4.91,27.15,1041.52,2043.00,3052.31,3043.28,3299.35,350.15,360.35,4.95,0000 0000 0000 0000 000000
2014-12-05 03:16:09,0.37,1.03,0.00,19.82,24.41,27.68,5.01,26.98,1041.51,2043.00,3047.81,3040.15,3295.82,349.83,359.89,4.98,0000 0000 0000 0000 000000
2014-12-05 03:21:10,0.38,1.04,0.00,19.80,24.41,27.66,4.98,26.97,1041.45,2043.00,3043.00,3037.01,3292.68,350.13,360.20,5.01,0000 0000 0000 0000 000000
2014-12-05 03:26:11,0.39,1.05,0.00,19.79,24.40,27.67,4.98,27.07,1041.22,2042.99,3038.37,3033.92,3289.47,350.00,360.02,5.04,0000 0000 0000 0000 000000
2014-12-05 03:31:12,0.42,1.07,0.00,19.74,24.40,27.70,4.93,27.01,1041.12,2042.99,3033.65,3030.58,3285.73,350.32,360.32,5.07,0000 0000 0000 0000 000000
2014-12-05 03:36:14,0.40,1.08,0.00,19.81,24.40,27.65,5.03,27.16,1041.09,2042.99,3028.70,3027.19,3282.08,350.14,360.22,5.10,0000 0000 0000 0000 000000
2014-12-05 03:41:15,0.41,1.09,0.00,19.80,24.40,27.61,4.96,27.24,1041.05,2042.99,3023.67,3023.86,3278.65,349.66,359.64,5.13,0000 0000 0000 0000 000000
2014-12-05 03:46:17,0.35,1.10,0.00,19.82,24.40,27.63,5.02,27.19,1041.04,2042.99,3019.12,3020.89,3275.63,350.44,360.00,5.16,0000 0000 0000 0000 000000
2014-12-05 03:51:18,0.37,1.11,0.00,19.80,24.40,27.66,4.97,26.98,1041.04,2043.00,3014.74,3017.91,3272.47,349.41,359.33,5.19,0000 0000 0000 0000 000000
2014-12-05 03:56:20,0.56,1.13,0.00,19.78,24.39,27.70,4.98,27.23,1041.04,2043.00,3008.30,3013.82,3268.17,349.84,359.79,5.22,0000 0000 0000 0000 000000
2014-12-05 04:01:21,1.03,1.15,0.00,19.74,24.39,27.66,4.89,27.11,1041.04,2043.00,2998.84,3007.84,3261.92,349.76,359.76,5.25,0000 0000 0000 0000 000000
2014-12-05 04:06:22,0.94,1.18,0.00,19.70,24.39,27.62,4.97,27.14,1041.04,2043.00,2985.10,2999.36,3252.96,350.32,360.30,5.27,0000 0000 0000 0000 000000
2014-12-05 04:11:23,0.79,1.21,0.00,19.76,24.38,27.63,5.02,27.13,1041.05,2043.00,2974.09,2992.59,3245.93,350.35,360.35,5.30,0000 0000 0000 0000 000000
2014-12-05 04:16:25,0.37,1.22,0.00,19.78,24.37,27.65,5.01,27.18,1041.06,2043.00,2968.73,2989.11,3242.26,349.92,359.84,5.33,0000 0000 0000 0000 000000
2014-12-05 04:21:26,0.35,1.23,0.00,19.78,24.37,27.63,4.98,27.28,1041.05,2043.01,2964.71,2986.39,3239.38,349.60,359.85,5.36,0000 0000 0000 0000 000000
2014-12-05 04:26:27,0.37,1.24,0.03,19.75,24.37,27.65,4.83,27.13,1041.04,2043.00,2960.34,2983.42,3236.20,349.32,359.40,5.39,0000 0000 0000 0000 000000
2014-12-05 04:31:28,0.40,1.25,1.00,19.76,24.37,27.63,4.99,27.22,1041.05,2043.00,2955.84,2980.28,3232.79,350.43,360.41,5.42,0000 0000 0000 0000 000000
2014-12-05 04:36:30,0.92,1.27,1.00,19.63,24.37,27.62,4.97,27.17,1041.04,2042.99,2946.85,2974.43,3226.45,350.21,360.32,5.45,0000 0000 0000 0000 000000
2014-12-05 04:41:31,0.86,1.30,1.00,19.71,24.37,27.59,5.01,27.38,1041.04,2042.99,2935.50,2967.09,3218.60,349.95,359.99,5.48,0000 0000 0000 0000 000000
2014-12-05 04:46:32,0.62,1.32,1.00,19.74,24.37,27.59,5.01,27.27,1041.03,2042.99,2927.65,2962.08,3213.40,349.38,359.48,5.51,0000 0000 0000 0000 000000
2014-12-05 04:51:33,0.66,1.34,1.00,19.75,24.37,27.60,4.90,27.07,1041.03,2042.99,2920.05,2957.07,3207.95,349.54,359.52,5.54,0000 0000 0000 0000 000000
2014-12-05 04:56:35,0.79,1.36,1.00,19.77,24.37,27.62,5.09,27.21,1041.03,2042.99,2911.07,2951.32,3201.92,350.97,360.99,5.57,0000 0000 0000 0000 000000
2014-12-05 05:01:36,0.73,1.39,1.00,19.76,24.37,27.65,4.98,27.23,1040.98,2042.99,2902.38,2945.61,3195.83,350.05,359.91,5.60,0000 0000 0000 0000 000000
2014-12-05 05:06:37,0.58,1.40,1.00,19.70,24.37,27.62,4.98,27.23,1040.99,2042.99,2895.13,2940.98,3190.83,350.37,360.31,5.63,0000 0000 0000 0000 000000
2014-12-05 05:11:38,0.56,1.42,1.00,19.59,24.36,27.58,4.92,27.18,1040.97,2042.98,2888.57,2936.66,3186.34,349.20,359.34,5.66,0000 0000 0000 0000 000000
2014-12-05 05:16:39,0.53,1.44,1.00,19.71,24.36,27.60,4.95,26.98,1040.90,2042.97,2882.35,2932.59,3182.02,349.79,359.65,5.68,0000 0000 0000 0000 000000
2014-12-05 05:21:40,0.53,1.45,1.00,19.74,24.35,27.60,4.95,27.14,1040.87,2042.97,2876.45,2928.60,3177.85,349.55,359.25,5.71,0000 0000 0000 0000 000000
2014-12-05 05:26:42,0.59,1.47,1.00,19.75,24.35,27.60,4.95,27.29,1040.77,2042.98,2869.86,2924.27,3173.23,349.53,359.40,5.74,0000 0000 0000 0000 000000
2014-12-05 05:31:43,0.63,1.49,1.00,19.75,24.35,27.59,4.96,27.26,1040.69,2042.99,2862.39,2919.42,3168.16,349.77,359.64,5.77,0000 0000 0000 0000 000000
2014-12-05 05:36:44,0.58,1.51,1.00,19.70,24.35,27.60,4.96,27.36,1040.78,2042.98,2855.50,2914.97,3163.55,349.97,359.77,5.80,0000 0000 0000 0000 000000
2014-12-05 05:41:45,0.60,1.52,1.00,19.62,24.35,27.60,4.96,27.18,1040.59,2042.98,2849.02,2910.59,3159.00,350.09,359.98,5.83,0000 0000 0000 0000 000000
2014-12-05 05:46:46,0.68,1.54,1.00,19.71,24.34,27.58,4.98,27.29,1040.59,2042.99,2841.48,2905.54,3153.58,349.84,359.56,5.86,0000 0000 0000 0000 000000
2014-12-05 05:51:47,0.70,1.56,1.00,19.72,24.34,27.60,4.96,27.19,1040.64,2042.98,2833.63,2900.31,3148.08,349.66,359.54,5.89,0000 0000 0000 0000 000000
2014-12-05 05:56:49,0.65,1.58,1.00,19.72,24.34,27.60,5.00,27.25,1040.57,2042.99,2826.21,2895.41,3142.82,349.80,359.64,5.92,0000 0000 0000 0000 000000
2014-12-05 06:01:51,0.64,1.60,1.00,19.72,24.34,27.61,4.96,27.21,1040.55,2042.98,2819.13,2890.69,3137.73,350.06,359.94,5.95,0000 0000 0000 0000 000000
2014-12-05 06:06:52,0.61,1.62,1.00,19.64,24.33,27.59,4.95,27.19,1040.54,2042.98,2812.16,2886.02,3133.01,349.93,359.83,5.98,0000 0000 0000 0000 000000
2014-12-05 06:11:53,0.53,1.64,1.00,19.65,24.32,27.59,4.97,27.23,1040.54,2042.98,2806.07,2881.95,3128.60,349.98,359.92,6.01,0000 0000 0000 0000 000000
2014-12-05 06:16:54,0.56,1.65,1.00,19.69,24.32,27.58,5.00,27.29,1040.54,2042.98,2799.97,2877.99,3124.16,349.97,359.84,6.04,0000 0000 0000 0000 000000
2014-12-05 06:21:56,0.53,1.67,1.00,19.69,24.32,27.56,5.00,27.29,1040.54,2042.96,2793.76,2873.99,3119.96,350.24,360.20,6.07,0000 0000 0000 0000 000000
2014-12-05 06:26:57,0.47,1.68,1.00,19.70,24.32,27.56,4.97,27.24,1040.54,2042.98,2788.85,2870.66,3116.39,350.23,360.04,6.09,0000 0000 0000 0000 000000
2014-12-05 06:31:58,0.58,1.70,1.00,19.64,24.32,27.59,5.01,27.15,1040.54,2042.96,2782.71,2866.49,3111.85,349.84,359.79,6.12,0000 0000 0000 0000 000000
2014-12-05 06:37:00,0.49,1.71,1.00,19.65,24.32,27.58,4.97,27.23,1040.54,2042.97,2777.06,2862.74,3107.83,350.07,359.99,6.15,0000 0000 0000 0000 000000
2014-12-05 06:42:01,0.55,1.73,1.00,19.69,24.31,27.56,5.00,27.18,1040.54,2042.96,2771.19,2858.87,3103.73,350.22,360.11,6.18,0000 0000 0000 0000 000000
2014-12-05 06:47:02,0.52,1.74,1.00,19.68,24.30,27.56,4.99,27.08,1040.54,2042.96,2765.47,2855.06,3099.73,350.00,359.86,6.21,0000 0000 0000 0000 000000
2014-12-05 06:52:04,0.50,1.76,1.00,19.68,24.30,27.59,4.91,27.32,1040.51,2042.92,2759.80,2851.30,3095.82,350.10,360.07,6.24,0000 0000 0000 0000 000000
2014-12-05 06:57:05,0.48,1.78,1.00,19.67,24.30,27.56,4.96,27.12,1040.52,2042.93,2754.54,2847.79,3092.08,349.92,359.89,6.27,0000 0000 0000 0000 000000
2014-12-05 07:02:06,0.49,1.79,1.00,19.60,24.30,27.51,4.96,27.40,1040.45,2042.93,2749.35,2844.25,3088.44,350.01,360.09,6.30,0000 0000 0000 0000 000000
2014-12-05 07:07:07,0.48,1.81,1.00,19.67,24.30,27.55,5.00,27.22,1040.49,2042.97,2744.15,2840.79,3084.83,350.08,360.01,6.33,0000 0000 0000 0000 000000
2014-12-05 07:12:09,0.42,1.82,1.00,19.68,24.29,27.55,4.99,26.93,1040.43,2042.97,2739.61,2837.74,3081.58,350.26,359.77,6.36,0000 0000 0000 0000 000000
2014-12-05 07:17:10,0.41,1.83,1.00,19.69,24.29,27.54,4.93,26.94,1040.38,2042.96,2735.22,2834.79,3078.37,350.00,359.91,6.39,0000 0000 0000 0000 000000
2014-12-05 07:22:11,0.42,1.84,1.00,19.67,24.28,27.56,4.99,27.12,1040.43,2042.97,2730.72,2831.76,3075.16,350.05,359.93,6.42,0000 0000 0000 0000 000000
2014-12-05 07:27:12,0.39,1.85,0.80,19.62,24.27,27.56,4.93,27.07,1040.48,2042.95,2726.55,2828.90,3072.08,349.76,359.58,6.45,0000 0000 0000 0000 000000
2014-12-05 07:32:13,0.39,1.87,0.00,19.62,24.27,27.53,5.02,27.27,1040.43,2042.95,2722.35,2826.06,3069.12,350.29,360.25,6.48,0000 0000 0000 0000 000000
2014-12-05 07:37:14,0.38,1.88,0.00,19.64,24.27,27.53,4.97,27.26,1040.45,2042.97,2718.23,2823.40,3066.34,350.22,360.12,6.50,0000 0000 0000 0000 000000
2014-12-05 07:42:16,0.39,1.89,0.00,19.66,24.27,27.52,4.95,27.14,1040.48,2042.96,2714.09,2820.62,3063.45,349.34,359.21,6.53,0000 0000 0000 0000 000000
2014-12-05 07:47:17,0.38,1.90,0.00,19.64,24.27,27.53,4.98,26.99,1040.43,2042.95,2710.04,2817.87,3060.53,350.43,360.31,6.56,0000 0000 0000 0000 000000
2014-12-05 07:52:18,0.41,1.91,0.00,19.60,24.27,27.52,4.95,27.12,1040.18,2042.97,2705.83,2815.13,3057.47,349.94,359.90,6.59,0000 0000 0000 0000 000000
2014-12-05 07:57:19,0.39,1.92,0.00,19.62,24.27,27.49,4.98,27.06,1040.09,2042.97,2701.60,2812.29,3054.47,350.08,359.76,6.62,0000 0000 0000 0000 000000
2014-12-05 08:02:21,0.40,1.93,0.00,19.63,24.26,27.51,4.94,27.17,1040.12,2042.97,2697.55,2809.49,3051.47,349.34,359.22,6.65,0000 0000 0000 0000 000000
2014-12-05 08:07:22,0.42,1.95,0.00,19.66,24.26,27.52,4.95,27.26,1040.12,2042.96,2693.26,2806.56,3048.29,349.67,359.57,6.68,0000 0000 0000 0000 000000
2014-12-05 08:12:24,0.40,1.96,0.00,19.63,24.25,27.49,4.96,27.17,1040.06,2042.96,2689.02,2803.67,3045.24,349.51,359.31,6.71,0000 0000 0000 0000 000000
2014-12-05 08:17:25,0.34,1.97,0.00,19.61,24.25,27.50,4.94,27.13,1040.06,2042.96,2685.45,2801.12,3042.40,350.31,360.28,6.74,0000 0000 0000 0000 000000
2014-12-05 08:22:26,0.39,1.98,0.00,19.58,24.25,27.46,4.94,26.93,1040.06,2042.97,2681.66,2798.48,3039.55,349.96,359.84,6.77,0000 0000 0000 0000 000000
2014-12-05 08:27:27,0.37,1.99,0.00,19.62,24.25,27.52,4.97,27.23,1040.06,2042.98,2677.69,2795.88,3036.79,349.98,359.73,6.80,0000 0000 0000 0000 000000
2014-12-05 08:32:28,0.40,2.00,0.00,19.63,24.25,27.51,5.02,27.21,1040.06,2042.97,2673.62,2793.14,3033.91,350.20,360.00,6.83,0000 0000 0000 0000 000000
2014-12-05 08:37:29,0.39,2.01,0.00,19.60,24.25,27.50,4.98,27.07,1040.06,2042.97,2669.50,2790.40,3031.02,350.09,360.04,6.86,0000 0000 0000 0000 000000
2014-12-05 08:42:31,0.37,2.03,0.00,19.57,24.25,27.50,4.94,26.93,1040.05,2042.94,2665.56,2787.66,3028.03,350.36,360.50,6.89,0000 0000 0000 0000 000000
2014-12-05 08:47:32,0.46,2.04,0.00,19.45,24.24,27.47,4.95,27.21,1040.03,2042.97,2661.32,2784.71,3024.79,350.78,360.57,6.91,0000 0000 0000 0000 000000
2014-12-05 08:52:34,0.40,2.05,0.00,19.55,24.24,27.50,5.00,27.36,1039.84,2042.97,2656.92,2781.70,3021.59,349.84,359.66,6.94,0000 0000 0000 0000 000000
2014-12-05 08:57:35,0.31,2.06,0.00,19.58,24.24,27.46,4.99,27.08,1039.79,2042.98,2653.56,2779.43,3019.19,350.36,360.02,6.97,0000 0000 0000 0000 000000
2014-12-05 09:02:36,0.34,2.07,0.00,19.60,24.23,27.50,4.95,27.26,1039.91,2042.97,2650.39,2777.22,3016.80,349.67,359.62,7.00,0000 0000 0000 0000 000000
2014-12-05 09:07:37,0.38,2.08,0.00,19.58,24.22,27.49,5.01,27.33,1039.72,2042.97,2646.70,2774.61,3013.92,349.62,359.35,7.03,0000 0000 0000 0000 000000
2014-12-05 09:12:38,0.43,2.09,0.00,19.53,24.22,27.49,4.99,27.22,1039.62,2042.96,2642.36,2771.64,3010.75,349.84,359.60,7.06,0000 0000 0000 0000 000000
2014-12-05 09:17:40,0.40,2.11,0.00,19.56,24.22,27.48,4.97,27.19,1039.60,2042.96,2638.19,2768.77,3007.65,349.84,359.57,7.09,0000 0000 0000 0000 000000
2014-12-05 09:22:41,0.37,2.12,0.00,19.59,24.22,27.48,4.89,27.21,1039.58,2042.97,2634.26,2766.26,3005.14,349.85,359.48,7.12,0000 0000 0000 0000 000000
2014-12-05 09:27:42,0.23,2.13,0.00,19.58,24.22,27.46,4.90,27.39,1039.57,2042.98,2631.53,2764.44,3003.33,349.55,359.21,7.15,0000 0000 0000 0000 000000
2014-12-05 09:32:44,0.17,2.13,0.00,19.57,24.22,27.46,4.98,27.25,1039.57,2042.99,2629.59,2763.09,3001.90,349.49,359.28,7.18,0000 0000 0000 0000 000000
2014-12-05 09:37:45,0.15,2.14,0.00,19.53,24.22,27.46,4.97,27.31,1039.57,2042.97,2627.95,2762.01,3000.74,349.96,359.58,7.21,0000 0000 0000 0000 000000
2014-12-05 09:42:46,0.12,2.14,0.00,19.53,24.22,27.46,5.01,27.32,1039.55,2042.98,2626.68,2761.09,2999.81,349.72,359.53,7.24,0000 0000 0000 0000 000000
2014-12-05 09:47:47,0.12,2.14,0.00,19.57,24.21,27.47,4.95,27.29,1039.53,2042.98,2625.60,2760.28,2998.86,349.02,358.78,7.27,0000 0000 0000 0000 000000
2014-12-05 09:52:49,0.11,2.15,0.00,19.58,24.20,27.44,4.95,27.15,1039.35,2042.99,2624.46,2759.61,2998.00,350.05,359.67,7.30,0000 0000 0000 0000 000000
2014-12-05 09:57:50,0.08,2.15,0.00,19.60,24.20,27.45,4.96,26.99,1039.15,2042.99,2623.55,2758.99,2997.15,350.53,360.17,7.32,0000 0000 0000 0000 000000
2014-12-05 10:02:51,0.08,2.15,0.00,19.56,24.20,27.48,4.98,27.19,1039.11,2042.99,2622.93,2758.26,2996.56,350.73,360.19,7.35,0000 0000 0000 0000 000000
2014-12-05 10:07:53,0.05,2.16,0.00,19.45,24.20,27.46,4.94,27.18,1039.12,2042.98,2622.09,2757.92,2996.01,350.20,359.94,7.38,0000 0000 0000 0000 000000
2014-12-05 10:12:54,0.11,2.16,0.00,19.51,24.20,27.47,4.93,27.18,1039.14,2042.99,2621.33,2757.15,2995.34,349.91,359.62,7.41,0000 0000 0000 0000 000000
2014-12-05 10:17:55,0.04,2.16,0.00,19.54,24.19,27.45,4.91,27.21,1039.09,2042.97,2620.66,2756.90,2994.93,350.12,359.80,7.44,0000 0000 0000 0000 000000
2014-12-05 10:22:57,0.09,2.16,0.00,19.56,24.19,27.46,4.97,27.30,1039.08,2042.98,2620.01,2756.12,2994.18,349.96,359.73,7.47,0000 0000 0000 0000 000000
2014-12-05 10:27:58,0.03,2.16,0.00,19.57,24.18,27.45,4.95,27.25,1039.08,2042.99,2619.41,2756.00,2994.00,349.84,359.40,7.50,0000 0000 0000 0000 000000
2014-12-05 10:32:59,0.09,2.16,0.00,19.49,24.17,27.44,4.91,27.21,1039.08,2042.99,2618.82,2755.47,2993.37,349.98,359.59,7.53,0000 0000 0000 0000 000000
2014-12-05 10:38:00,0.06,2.17,0.00,19.52,24.17,27.45,4.96,27.28,1039.08,2042.99,2617.89,2754.94,2992.79,349.73,359.24,7.56,0000 0000 0000 0000 000000
2014-12-05 10:43:01,0.10,2.17,0.00,19.57,24.17,27.46,4.96,27.24,1039.08,2042.99,2617.05,2754.17,2992.04,349.72,359.14,7.59,0000 0000 0000 0000 000000
2014-12-05 10:48:03,0.06,2.17,0.00,19.58,24.17,27.44,4.95,27.34,1039.08,2042.99,2616.39,2753.90,2991.57,350.09,359.73,7.62,0000 0000 0000 0000 000000
2014-12-05 10:53:04,0.09,2.18,0.00,19.57,24.17,27.46,4.93,27.27,1039.08,2042.99,2615.56,2753.10,2990.85,349.74,359.08,7.65,0000 0000 0000 0000 000000
2014-12-05 10:58:05,0.20,2.18,0.00,19.57,24.17,27.44,4.87,27.23,1039.08,2042.99,2613.99,2752.01,2989.30,349.58,359.12,7.68,0000 0000 0000 0000 000000
2014-12-05 11:03:07,0.27,2.19,0.00,19.52,24.17,27.42,4.98,27.33,1039.06,2042.99,2611.35,2750.27,2987.24,349.46,359.48,7.71,0000 0000 0000 0000 000000
2014-12-05 11:08:08,0.25,2.20,0.00,19.55,24.16,27.40,4.97,27.14,1039.04,2042.98,2608.77,2748.51,2985.32,350.19,359.74,7.73,0000 0000 0000 0000 000000
2014-12-05 11:13:10,0.28,2.20,0.00,19.58,24.15,27.43,4.83,27.22,1039.00,2042.99,2606.16,2746.61,2983.28,348.90,358.37,7.76,0000 0000 0000 0000 000000
2014-12-05 11:18:11,0.26,2.21,0.00,19.60,24.15,27.44,5.00,27.33,1038.90,2042.99,2603.60,2744.75,2981.31,349.35,358.92,7.79,0000 0000 0000 0000 000000
2014-12-05 11:23:12,0.25,2.22,0.00,19.60,24.15,27.45,4.91,27.27,1038.99,2042.99,2601.07,2742.99,2979.44,350.04,359.55,7.82,0000 0000 0000 0000 000000
2014-12-05 11:28:14,0.24,2.23,0.00,19.55,24.15,27.44,4.98,27.26,1038.73,2042.99,2598.66,2741.22,2977.53,350.47,359.83,7.85,0000 0000 0000 0000 000000
2014-12-05 11:33:15,0.23,2.23,0.00,19.58,24.15,27.40,5.04,27.31,1038.62,2042.99,2596.53,2739.68,2975.76,350.60,359.90,7.88,0000 0000 0000 0000 000000
2014-12-05 11:38:16,0.18,2.24,0.00,19.58,24.15,27.40,4.93,27.40,1038.61,2042.98,2594.51,2738.17,2974.18,349.62,359.03,7.91,0000 0000 0000 0000 000000
2014-12-05 11:43:18,0.13,2.24,0.00,19.58,24.15,27.42,4.94,27.30,1038.62,2042.99,2593.16,2737.25,2973.42,350.00,359.43,7.94,0000 0000 0000 0000 000000
2014-12-05 11:48:19,0.12,2.25,0.00,19.57,24.15,27.41,4.97,27.27,1038.60,2042.99,2592.11,2736.56,2972.50,350.07,359.19,7.97,0000 0000 0000 0000 000000
2014-12-05 11:53:21,0.22,2.25,0.00,19.46,24.15,27.41,4.99,27.35,1038.59,2042.99,2590.22,2735.19,2970.92,349.70,359.27,8.00,0000 0000 0000 0000 000000
2014-12-05 11:58:22,0.27,2.26,0.00,19.51,24.15,27.40,4.91,27.32,1038.59,2042.99,2587.59,2733.27,2968.89,349.20,358.71,8.03,0000 0000 0000 0000 000000
2014-12-05 12:03:23,0.26,2.27,0.00,19.55,24.15,27.39,4.98,27.25,1038.59,2042.99,2585.04,2731.44,2966.85,350.01,359.40,8.06,0000 0000 0000 0000 000000
2014-12-05 12:08:24,0.25,2.28,0.00,19.56,24.15,27.38,4.99,27.23,1038.59,2042.97,2582.62,2729.70,2965.05,350.16,359.49,8.09,0000 0000 0000 0000 000000
2014-12-05 12:13:26,0.20,2.28,0.00,19.55,24.15,27.41,4.96,27.38,1038.55,2042.98,2580.53,2728.26,2963.51,349.99,359.02,8.12,0000 0000 0000 0000 000000
2014-12-05 12:18:27,0.21,2.29,0.00,19.47,24.14,27.42,4.96,27.18,1038.54,2042.99,2578.51,2726.87,2961.99,349.61,359.00,8.15,0000 0000 0000 0000 000000
2014-12-05 12:23:28,0.21,2.30,0.00,19.49,24.14,27.39,5.01,27.39,1038.52,2042.99,2576.43,2725.43,2960.44,350.62,360.13,8.17,0000 0000 0000 0000 000000
2014-12-05 12:28:29,0.23,2.30,0.00,19.56,24.14,27.36,4.92,27.16,1038.41,2042.99,2574.40,2723.88,2958.84,350.00,359.25,8.20,0000 0000 0000 0000 000000
2014-12-05 12:33:31,0.23,2.31,0.00,19.58,24.14,27.39,4.90,27.25,1038.26,2042.99,2572.13,2722.35,2957.04,349.69,358.99,8.23,0000 0000 0000 0000 000000
2014-12-05 12:38:32,0.22,2.32,0.00,19.58,24.13,27.40,4.95,27.40,1038.18,2042.99,2570.03,2720.78,2955.42,350.28,359.54,8.26,0000 0000 0000 0000 000000
2014-12-05 12:43:33,0.21,2.32,0.00,19.57,24.13,27.43,4.99,27.23,1038.11,2042.99,2568.03,2719.36,2953.71,350.12,359.30,8.29,0000 0000 0000 0000 000000
2014-12-05 12:48:35,0.20,2.33,0.00,19.47,24.13,27.39,5.07,27.32,1038.11,2042.99,2565.99,2717.87,2952.23,350.65,359.96,8.32,0000 0000 0000 0000 000000
2014-12-05 12:53:36,0.19,2.33,0.00,19.54,24.13,27.38,4.92,27.18,1038.11,2042.99,2564.16,2716.61,2950.85,349.84,358.95,8.35,0000 0000 0000 0000 000000
2014-12-05 12:58:37,0.15,2.34,0.00,19.56,24.13,27.42,4.94,27.15,1038.10,2042.99,2562.67,2715.61,2949.80,350.10,359.10,8.38,0000 0000 0000 0000 000000
2014-12-05 13:03:38,0.14,2.34,0.00,19.55,24.13,27.38,4.96,27.14,1038.10,2042.99,2561.39,2714.63,2948.68,349.42,358.67,8.41,0000 0000 0000 0000 000000